Regional Weather Roundup
Issued by NWS Upton, NY

Current Version | Previous Version | Text Only | Print | Product List | Glossary On
Versions: 1 2 3 4 5 6 7 8 9 10 11 12 13 14 15 16 17 18 19 20 21 22 23 24 25 26 27
000
ASUS41 KOKX 300804
RWROKX

REGIONAL WEATHER ROUNDUP
NATIONAL WEATHER SERVICE NEW YORK NY
400 AM EDT MON MAY 30 2016

NOTE: "FAIR" INDICATES FEW OR NO CLOUDS BELOW 12,000 FEET WITH NO
SIGNIFICANT WEATHER AND/OR OBSTRUCTIONS TO VISIBILITY.

NYZ071-072-176-178-NJZ106-104-300900-
NEW YORK CITY METRO AREA


CITY           SKY/WX    TMP DP  RH WIND       PRES   REMARKS
CENTRAL PARK   RAIN      70  69  97 W3        30.02F FOG
LAGUARDIA APRT HVY RAIN  69  69 100 CALM      29.98F FOG
KENNEDY INTL   LGT RAIN  65  63  93 S10       30.01F VSB 1/2
NEWARK/LIBERTY LGT RAIN  70  68  93 CALM      29.99F FOG
BRNX BOT. GARD   N/A     68  66  94 NW1       30.01R
TETERBORO      RAIN      71  67  87 W6        29.98F FOG
$$

NYZ177-179-078>081-300900-
LONG ISLAND NEW YORK

CITY           SKY/WX    TMP DP  RH WIND       PRES   REMARKS
FARMINGDALE    CLOUDY    67  66  97 SW6       30.00F FOG
ISLIP          CLOUDY    68  67  96 SW9       30.01F FOG
SHIRLEY        FOG       66  65  96 S7        30.02S VSB 3/4
RIVERHEAD        N/A     66  66 100 SW1       30.00F
WESTHAMPTON    LGT RAIN  64  64 100 S6        30.03F FOG
EAST HAMPTON   FOG       64  64  99 S3        30.02F VSB 1
MONTAUK POINT    N/A     62  62 100 CALM      30.04F
$$

NYZ052-065-067-300900-
HUDSON VALLEY

CITY           SKY/WX    TMP DP  RH WIND       PRES   REMARKS
WHITE PLAINS   RAIN      68  67  96 CALM      30.00F
NEWBURGH       NOT AVBL
MONTGOMERY     LGT RAIN  67  65  93 CALM      30.00F
POUGHKEEPSIE   LGT RAIN  70  67  90 SE5       29.99F
ALBANY         LGT RAIN  69  65  86 S6        29.98S
$$

NJZ001-105-106-008-010-013-015-019>022-104-300900-
NEW JERSEY

CITY           SKY/WX    TMP DP  RH WIND       PRES   REMARKS
NEWARK/LIBERTY LGT RAIN  70  68  93 CALM      29.99F FOG
TETERBORO      RAIN      71  67  87 W6        29.98F FOG
CALDWELL       CLOUDY    68  65  90 CALM      30.00F
MORRISTOWN     CLOUDY    68  66  94 CALM      30.00F
SOMERVILLE     CLOUDY    67  65  93 CALM      29.98F
SUSSEX         LGT RAIN  66  62  87 CALM      30.01F
ANDOVER          N/A     66  64  93 CALM      30.02S
TRENTON        LGT RAIN  68  66  93 N3        29.99F
MILLVILLE      CLOUDY    72  70  93 VRB6      30.00F
ATLANTIC CITY  CLOUDY    72  71  97 S12       30.00F
WRIGHTSTOWN    CLOUDY    72  71  98 SW9       29.96F
TOMS RIVER     CLOUDY    72  68  88 S9        30.00F
BELMAR         CLOUDY    72  70  93 S10G16    30.01F
$$

PAZ047>061-062-071-300900-
EASTERN PENNSYLVANIA

CITY           SKY/WX    TMP DP  RH WIND       PRES   REMARKS
PHILADELPHIA   LGT RAIN  70  68  93 CALM      29.99S FOG
ALLENTOWN      CLOUDY    68  64  87 NE7       30.00S
SCRANTON       LGT RAIN  64  62  93 CALM      30.03S FOG
$$

CTZ002-004>006-009-010-012-RIZ004-006-007-MAZ004-011-015-300900-
SOUTHERN NEW ENGLAND
 IN CT

CITY           SKY/WX    TMP DP  RH WIND       PRES   REMARKS
BRADLEY INTL   RAIN      63  61  93 NE6       30.01F FOG
HARTFORD       RAIN      71  68  90 CALM      30.01F FOG
DANBURY        LGT RAIN  66  64  93 SE5       30.02F FOG
WTRBRY/OXFORD    N/A     66  63  88 CALM      30.04S
BRIDGEPORT     HVY RAIN  66  65  96 E6        30.01S FOG
MERIDEN        HVY RAIN  68  65  90 CALM      30.01F FOG
NEW HAVEN      RAIN      65  65 100 CALM      30.01F FOG
CHESTER        LGT RAIN  64  64 100 CALM      30.02F
GROTON         FOG       62  62 100 E12       30.02F VSB 1/2
WILLIMANTIC    CLOUDY    64  61  90 NE6       30.03F FOG

 IN RI

CITY           SKY/WX    TMP DP  RH WIND       PRES   REMARKS
PROVIDENCE     CLOUDY    57  55  93 NE5       30.06F
BLOCK ISLAND   LGT RAIN  63  63 100 SW6       30.04F VSB 1/2
WESTERLY       CLOUDY    62  59  90 E5        30.04F FOG

 IN MA

CITY           SKY/WX    TMP DP  RH WIND       PRES   REMARKS
BOSTON         LGT RAIN  53  52  96 E3        30.06F
WORCESTER      LGT RAIN  53  52  96 E3        30.05F VSB 1/4
WESTFIELD      LGT RAIN  61  58  90 N7        30.02F
PROVINCETOWN   CLOUDY    54  53  97 NE3       30.07F
NANTUCKET      LGT RAIN  61  59  93 S5        30.06F VSB 1/4
$$

ANZ330-335-338-340-345-350-353-355-300900-
COASTAL MARINE OBSERVATIONS


STATION/POSITION TIME  SKY/WX   TEMP    WIND        PRES    VSBY  WAVE
                                AIR SEA DIR/SP/G                  HT/PER
                 (UTC)          (F)     (DEG/KT/KT) (MB)    (MI)  (FT/S)
NY HARB ENTRANCE 0650            61 59  180/  8/ 10 1015.9          3/ 8
20S FIRE ISLAND  0650            63 62  190/ 12/ 14 1016.2          3/ 8
GREAT SOUTH BAY  0700            65 71  210/ 12/ 14   N/A
23 SSW MONTAUK P 0750            61 59  190/  8/ 10 1016.3          3/ 8
15 E BARNEGAT LI 0722               61                N/A           3/ 8
HUDSON CANYON    0650            63 59              1017.4          3/ 8
KINGS POINT      0700            65 60              1015.9
EXECUTION ROCKS  NOT AVBL
CENTRAL LI SOUND 0700            65     100/  6/  6   N/A           1
EASTERN LI SOUND 0700            58 54   80/  8/  8   N/A
ROBBINS REEF     0700            67     180/  5/  5 1015.3
$$


>>>>>>>>>>>>>>>>>>>>>>>>>>>> KEY <<<<<<<<<<<<<<<<<<<<<<<<<<<
>                                                          <
>     SKY/WX - SKY CONDITION/PRESENT WEATHER               <
>     TMP    - TEMPERATURE IN FAHRENHEIT                   <
>     DP     - DEWPOINT IN FAHRENHEIT                      <
>     RH     - RELATIVE HUMIDITY IN PERCENT                <
>     WIND   - DIRECTION AND SPEED IN MPH                  <
>     PRES   - MEAN SEA LEVEL PRESSURE IN INCHES OF HG     <
>     WCI    - WIND CHILL INDEX                            <
>     VSB    - VISIBILITY IN MILES                         <
>     HX     - HEAT INDEX                                  <
>     TC     - TEMPERATURE IN CELSIUS                      <
>     VRB    - VARIABLE WIND DIRECTION                     <
>                                                          <
>>>>>>>>>>>>>>>>>>>>>>>>>>>> KEY <<<<<<<<<<<<<<<<<<<<<<<<<<<






USA.gov is the U.S. government's official web portal to all federal, state and local government web resources and services.